Location: Newark
(21.1200°N, 73.4000°E)
Time: 18:39:30
(UTC+00:00)

Explorer 11/Cluster Stage 4 - Pass Details

Date: 21 January 2020
Orbit: 467 x 1259 km, 28.8° (Epoch: 26 February)

Event Time Altitude Azimuth Distance (km) Brightness Sun altitude
Rises 09:06:31 0° 240° (WSW) 4,195 11.0 41.0°
Reaches altitude 10° 09:09:31 10° 238° (WSW) 3,216 10.7 40.6°
Maximum altitude 09:17:41 71° 156° (SSE) 1,232 8.4 39.5°
Drops below altitude 10° 09:24:50 10° 73° (ENE) 2,847 9.1 38.4°
Sets 09:27:21 0° 71° (ENE) 3,692 9.6 38.1°
